Regional Weather Roundup
Issued by NWS Upton, NY

Current Version | Previous Version | Text Only | Print | Product List | Glossary On
Versions: 1 2 3 4 5 6 7 8 9 10 11 12 13 14 15 16 17 18 19 20 21 22 23 24 25 26 27 28 29 30 31 32 33 34 35 36 37 38 39 40 41 42 43 44 45 46 47 48 49 50
000
ASUS41 KOKX 180308
RWROKX

REGIONAL WEATHER ROUNDUP
NATIONAL WEATHER SERVICE NEW YORK NY
1000 PM EST TUE JAN 17 2017

NOTE: "FAIR" INDICATES FEW OR NO CLOUDS BELOW 12,000 FEET WITH NO
SIGNIFICANT WEATHER AND/OR OBSTRUCTIONS TO VISIBILITY.

NYZ071-072-176-178-NJZ106-104-180400-
NEW YORK CITY METRO AREA

CITY           SKY/WX    TMP DP  RH WIND       PRES   REMARKS
Central Park   CLOUDY    39  37  92 E8        30.03F FOG     WCI  33
Wall St Helipt CLOUDY    40  38  93 NE15      30.00F WCI  32
Bronx Bot Gard NOT AVBL
LaGuardia APRT CLOUDY    39  37  92 NE12      30.01F FOG     WCI  32
Kennedy INTL   LGT RAIN  42  39  89 NE8       30.02F FOG
Breezy Point     N/A     41 N/A N/A NE8         N/A
Newark/Liberty LGT RAIN  40  39  97 NE9       30.00F FOG     WCI  34
Teterboro      DRIZZLE   40  37  89 NE7       30.01F FOG
$$

NYZ177-179-078>081-180400-
LONG ISLAND NEW YORK

CITY           SKY/WX    TMP DP  RH WIND       PRES   REMARKS
Jones Beach      N/A     39 N/A N/A E12         N/A  WCI  32
Matinecock PT    N/A     37 N/A N/A E20         N/A  WCI  27
Farmingdale    RAIN      40  39  97 NE5       30.01F FOG
MacArthur/ISP  LGT RAIN  40  40 100 NE5       30.02F FOG
Shirley        RAIN      40  40 100 VRB3      30.03F FOG
Westhampton    LGT RAIN  41  40  96 E9        30.03F FOG
Southampton    NOT AVBL
Bridgehampton  NOT AVBL
East Hampton   LGT RAIN  40  39  95 E10G16    30.02F WCI  34
Montauk          N/A     40  37  89 E9        30.04F WCI  34
$$

NYZ052-065-067-180400-
HUDSON VALLEY

CITY           SKY/WX    TMP DP  RH WIND       PRES   REMARKS
White Plains   LGT RAIN  36  34  92 E10       30.01F FOG     WCI  28
Newburgh       CLOUDY    34  34 100 E8        30.03  FOG     WCI  27
Montgomery     LGT RAIN  34  32  92 NE9       30.01F FOG     WCI  27
Poughkeepsie   LGT RAIN  33  32  96 N3        30.05S FOG
Albany         LGT RAIN  34  31  88 S7        30.03F FOG     WCI  28
$$

NJZ001-105-106-008-010-013-015-019>022-104-180400-
NEW JERSEY

CITY           SKY/WX    TMP DP  RH WIND       PRES   REMARKS
Newark/Liberty LGT RAIN  40  39  97 NE9       30.00F FOG     WCI  34
Teterboro      DRIZZLE   40  37  89 NE7       30.01F FOG
Caldwell       CLOUDY    38  36  92 E9        30.01F FOG     WCI  31
Somerville     CLOUDY    40  38  93 N5        29.96F FOG
Linden         CLOUDY    41  39  93 E8        29.99F FOG
Sussex         CLOUDY    34  33  96 NE9       29.99F FOG     WCI  27
Andover          N/A     34  34 100 CALM      29.98F
Trenton        CLOUDY    42  41  96 NE6       29.96F FOG
Millville      FOG       45  45 100 CALM      29.94S VSB 1/2
Atlantic City  FOG       46  45  96 S6        29.94F VSB 1/2
Wrightstown    CLOUDY    43  42  97 CALM      29.93F FOG
Toms River     CLOUDY    44  43  96 NE3       29.96F FOG
Belmar         LGT RAIN  45  45 100 E8        29.96F
$$

PAZ047>061-062-071-180400-
EASTERN PENNSYLVANIA

CITY           SKY/WX    TMP DP  RH WIND       PRES   REMARKS
Philadelphia   CLOUDY    43  42  97 NE5       29.96F FOG
Allentown      CLOUDY    38  35  89 NE5       29.96F FOG     WCI  34
Scranton       LGT RAIN  37  36  96 E6        29.93F WCI  32
$$

CTZ002-004>006-009-010-012-RIZ004-006-007-MAZ004-011-015-180400-
SOUTHERN NEW ENGLAND
 IN CT

CITY           SKY/WX    TMP DP  RH WIND       PRES   REMARKS
Bradley INTL   LGT RAIN  33  33 100 N5        30.08F FOG     WCI  29
Hartford       CLOUDY    35  33  92 N6        30.07F FOG     WCI  30
Danbury        CLOUDY    33  31  92 E6        30.04F WCI  28
Wtrbury/Oxford CLOUDY    34  28  80 E6        30.04F WCI  29
Bridgeport     LGT RAIN  37  34  87 NE10      30.05S FOG     WCI  30
Meriden        RAIN      36  32  85 N3        30.06F FOG
New Haven      MIX PCPN  36  33  89 NE7       30.05S WCI  30
Chester        LGT RAIN  36  34  93 E6        30.04F WCI  31
Groton         LGT RAIN  39  36  89 E12       30.05F WCI  32
Wilimantic     LGT RAIN  38  36  92 E3        30.08F

 IN RI

CITY           SKY/WX    TMP DP  RH WIND       PRES   REMARKS
Providence     LGT RAIN  38  36  92 E8        30.09F WCI  32
Block Island   NOT AVBL
Westerly       LGT RAIN  40  35  83 E9        30.07F WCI  34
 IN MA

CITY           SKY/WX    TMP DP  RH WIND       PRES   REMARKS
Boston         LGT RAIN  37  36  96 E16       30.14F FOG     WCI  28
Worcester      FRZ RAIN  32  31  96 E7        30.06F VSB 1/4 WCI  26
Westfield      LGT RAIN  33  33 100 N3        30.07F FOG
Provincetown   LGT RAIN  38  36  92 E9        30.15F WCI  31
Nantucket      LGT RAIN  41  37  86 E14       30.11F
$$

ANZ330-335-338-340-345-350-353-355-180400-
COASTAL MARINE OBSERVATIONS


STATION/POSITION TIME  SKY/WX   TEMP    WIND        PRES    VSBY  WAVE
                                AIR SEA DIR/SP/G                  HT/PER
                 (UTC)          (F)     (DEG/KT/KT) (MB)    (MI)  (FT/S)
NY HARB ENTRANCE 0150            44 44  110/ 10/ 12 1016.0          2/ 3
20 S FIRE ISLAND 0250            46 45  120/ 10/ 14 1015.8          2/ 4
GREAT SOUTH BAY  NOT AVBL
23 SSW MONTAUK P 0150            44 48  120/ 19/ 23 1017.6          2/ 4
15 E BARNEGAT LI 0230               43                N/A           2/ 4
HUDSON CANYON    0150            52 53              1015.7          2/ 3
KINGS POINT      0242            38 38              1016.1
EXECUTION ROCKS  0230            38      60/ 14/ 17   N/A
CENTRAL LI SOUND 0215            40      90/ 16/ 19   N/A           2/ 4
EASTERN LI SOUND NOT AVBL
ROBBINS REEF     0242            39      50/ 11/ 12 1016.1
$$


>>>>>>>>>>>>>>>>>>>>>>>>>>>> KEY <<<<<<<<<<<<<<<<<<<<<<<<<<<
>                                                          <
>     SKY/WX - Sky Condition/Present Weather               <
>     TMP    - Temperature in Fahrenheit                   <
>     DP     - Dew Point in Fahrenheit                     <
>     RH     - Relative Humidity in Percent                <
>     WIND   - Direction (from) and Speed in MPH           <
>     PRES   - Mean Sea Level Pressure (inches of Hg)      <
>     WCI    - Wind Chill Index                            <
>     VSB    - VISIBILITY IN MILES                         <
>     HX     - HEAT INDEX                                  <
>     TC     - TEMPERATURE IN CELSIUS                      <
>     VRB    - VARIABLE WIND DIRECTION                     <
>                                                          <
>>>>>>>>>>>>>>>>>>>>>>>>>>>> KEY <<<<<<<<<<<<<<<<<<<<<<<<<<<



USA.gov is the U.S. government's official web portal to all federal, state and local government web resources and services.